Airfield :
LOGIN :

Register | Disclaimer

   EN    FR    IT 

 










Legend :    VFR   Marginal VFR   IFR   Intensive IFR   Very Intensive IFR
Visi :
Ceiling :
>= 8 km
>= 3000ft
5 to 8 km
1000 to 3000 ft
1500m to 5 km
500 to 1000 ft
800 to 1500m
200 to 500 ft
< 800m
< 200 ft
Symbols :   Thunderstorms  Fog  Heavy snow  Heavy precipitations  Wind > 20 kt
SIGMETs :     Misc.  Thunderstorms  Icing  Turbulence  Mountain Waves  Volcanic Ashes







- Airport Elevation : 76 ft
- IATA code : KID


ESMK - Kristianstad

CURRENT METAR :
  • 240950Z AUTO 09007KT 050V120 9999 FEW011/// 18/18 Q1027

EXPIRED METARs :
  • 240920Z AUTO 10006KT 9999 FEW009/// SCT012/// 17/17 Q1027
  • 240850Z AUTO 10007KT 9999 FEW006/// SCT008/// BKN010/// 16/16 Q1027
  • 240820Z AUTO 09006KT 9000 BKN003/// BKN007/// 16/16 Q1026
  • 240750Z AUTO 09007KT 6000 BR OVC002/// 15/15 Q1026
  • 240720Z AUTO 09008KT 5000 BR OVC002/// 15/15 Q1026

Expired Forecast.
No reported NOTAMs for that airfield.



MET'MAP, your aeronautical weather chart ! - Copyright ORBIFLY December 2007 - Disclaimer

ORBIFLY MET'MAP TEAM :

Programming & Development : Alexandra Zaïnal
Concept & Development : Baudouin d'Aumeries
Co-Development & Prog : Marc-Olivier Méhu
Technical & hardware support : Manuel Goepfert

Contact : metmap@orbifly.com




SOURCES & CREDITS :

   NOAA